DW6386 Weather Reports


time (UTC)temp
F
wind
direction
speed
knots
gust
knots
rain 1hr
in
rain 24hr
in
rain mn
in
humidity
%
barometer
mb
20260831190057 77 146 0.0 0.0 0.00 0.25 0.25 94 1018.4
20260831184555 76 146 0.0 0.0 0.13 0.25 0.25 94 1018.4
20260831183046 76 146 0.0 0.0 0.25 0.25 0.25 93 1018.6
20260831181549 76 147 0.0 1.7 0.25 0.25 0.25 89 1019.0
20260831180044 78 122 0.0 1.7 0.25 0.25 0.25 82 1019.1
20260831174544 86 136 0.9 3.5 0.09 0.09 0.09 69 1019.2
20260831173042 91 157 0.0 2.6 0.00 0.00 0.00 58 1018.8
20260831171544 91 90 1.7 4.3 0.00 0.00 0.00 60 1018.8
20260831170036 90 79 0.9 3.5 0.00 0.00 0.00 63 1019.0
20260831164635 90 353 1.7 3.5 0.00 0.00 0.00 66 1019.1
20260831163038 90 63 0.9 3.5 0.00 0.00 0.00 67 1019.2
20260831161533 89 271 0.9 4.3 0.00 0.00 0.00 68 1019.4
20260831160028 89 61 1.7 3.5 0.00 0.00 0.00 66 1019.5
20260831154533 87 48 0.9 3.5 0.00 0.00 0.00 70 1019.7
20260831153034 87 288 0.9 5.2 0.00 0.00 0.00 72 1019.7
20260831151522 87 289 0.0 2.6 0.00 0.00 0.00 70 1019.7
20260831150018 86 19 0.0 4.3 0.00 0.00 0.00 70 1019.6
20260831144515 84 353 0.0 0.9 0.00 0.00 0.00 74 1019.6
20260831143013 84 214 0.0 2.6 0.00 0.00 0.00 76 1019.7
20260831141512 83 184 0.0 0.9 0.00 0.00 0.00 77 1019.6
20260831140007 81 210 0.0 0.0 0.00 0.00 0.00 80 1019.7
20260831134503 80 269 0.0 0.9 0.00 0.00 0.00 83 1019.6
20260831133103 79 248 0.0 1.7 0.00 0.00 0.00 86 1019.6
20260831131603 78 136 0.0 0.0 0.00 0.00 0.00 91 1019.7
20260831130053 77 150 0.0 0.0 0.00 0.00 0.00 97 1019.5
20260831124555 74 151 0.0 0.0 0.00 0.00 0.00 97 1019.5
20260831123052 73 150 0.0 0.0 0.00 0.00 0.00 97 1019.5
20260831121547 71 151 0.0 0.0 0.00 0.00 0.00 99 1019.3
20260831120042 68 150 0.0 0.0 0.00 0.00 0.00 99 1019.2
20260831114550 68 150 0.0 0.0 0.00 0.00 0.00 99 1019.0
20260831113038 68 150 0.0 0.0 0.00 0.00 0.00 98 1018.8
20260831111534 68 150 0.0 0.0 0.00 0.00 0.00 98 1018.5
20260831110031 68 150 0.0 0.0 0.00 0.00 0.00 98 1018.5
20260831104535 68 150 0.0 0.0 0.00 0.00 0.00 98 1018.3
20260831103028 68 150 0.0 0.0 0.00 0.00 0.00 98 1018.3
20260831101528 68 150 0.0 0.0 0.00 0.00 0.00 98 1018.2
20260831100025 68 150 0.0 0.0 0.00 0.00 0.00 98 1018.1
20260831094524 68 150 0.0 0.0 0.00 0.00 0.00 98 1018.0
20260831093023 68 150 0.0 0.0 0.00 0.00 0.00 98 1017.9
20260831091522 68 150 0.0 0.0 0.00 0.00 0.00 98 1017.8
20260831090020 69 150 0.0 0.0 0.00 0.00 0.00 98 1017.8
20260831084519 69 150 0.0 0.0 0.00 0.00 0.00 97 1017.8
20260831083018 69 150 0.0 0.0 0.00 0.00 0.00 98 1017.6
20260831081518 69 150 0.0 0.0 0.00 0.00 0.00 98 1017.6
20260831080015 69 150 0.0 0.0 0.00 0.00 0.00 97 1017.5
20260831074515 69 150 0.0 0.0 0.00 0.00 0.00 97 1017.6
20260831073017 69 150 0.0 0.0 0.00 0.00 0.00 97 1017.6
20260831071518 70 150 0.0 0.0 0.00 0.00 0.00 97 1017.7
20260831070012 70 150 0.0 0.0 0.00 0.00 0.00 97 1017.8
20260831064517 70 150 0.0 0.0 0.00 0.00 0.00 96 1017.8
20260831063018 70 150 0.0 0.0 0.00 0.00 0.00 96 1017.7
20260831061508 70 150 0.0 0.0 0.00 0.00 0.00 96 1017.9
20260831060006 71 150 0.0 0.0 0.00 0.00 0.00 96 1018.1
20260831054506 71 150 0.0 0.0 0.00 0.00 0.00 96 1018.0
20260831053004 70 150 0.0 0.0 0.00 0.00 0.00 95 1018.0
20260831051504 71 150 0.0 0.0 0.00 0.00 0.00 95 1017.9
20260831050001 71 150 0.0 0.0 0.00 0.00 0.00 95 1017.8
20260831044601 71 150 0.0 0.0 0.00 0.00 0.00 95 1017.7
20260831043100 71 150 0.0 0.0 0.00 0.00 0.00 94 1017.7
20260831041618 71 150 0.0 0.0 0.00 0.00 0.00 94 1017.6
20260831040054 71 150 0.0 0.0 0.00 0.00 0.00 94 1017.7
20260831034555 72 150 0.0 0.0 0.00 0.00 0.00 93 1017.8
20260831033108 72 150 0.0 0.0 0.00 0.00 0.00 92 1017.8
20260831031555 72 150 0.0 0.0 0.00 0.00 0.00 92 1017.8
20260831030052 73 150 0.0 0.0 0.00 0.00 0.00 92 1017.8
20260831024552 73 150 0.0 0.0 0.00 0.00 0.00 92 1017.7
20260831023055 73 150 0.0 0.0 0.00 0.00 0.00 91 1017.7
20260831021550 74 150 0.0 0.0 0.00 0.00 0.00 91 1017.7
20260831020050 74 150 0.0 0.0 0.00 0.00 0.00 90 1017.6
20260831014559 75 150 0.0 0.0 0.00 0.00 0.00 89 1017.4
20260831013056 75 150 0.0 0.0 0.00 0.00 0.00 88 1017.3
20260831011549 76 150 0.0 0.0 0.00 0.00 0.00 87 1017.2
20260831010106 76 150 0.0 0.0 0.00 0.00 0.00 86 1017.0
20260831004548 77 150 0.0 0.0 0.00 0.00 0.00 83 1016.8
20260831003059 78 150 0.0 0.0 0.00 0.00 0.00 81 1016.7
20260831001546 80 150 0.0 0.0 0.00 0.00 0.00 79 1016.6
20260831000049 81 150 0.0 0.0 0.00 0.00 0.00 77 1016.6
20260830234553 82 150 0.0 0.0 0.00 0.00 0.00 74 1016.6
20260830233045 83 150 0.0 0.0 0.00 0.00 0.00 72 1016.6
20260830231548 84 150 0.0 0.0 0.00 0.00 0.00 70 1016.6
20260830230048 85 150 0.0 0.0 0.00 0.00 0.00 68 1016.6
20260830224552 86 151 0.0 0.0 0.00 0.00 0.00 65 1016.4
20260830223044 86 150 0.0 0.0 0.00 0.00 0.00 63 1016.3
20260830221542 87 160 0.0 0.9 0.00 0.00 0.00 62 1016.4
20260830220040 87 120 0.0 0.9 0.00 0.00 0.00 57 1016.5
20260830214542 88 229 0.0 1.7 0.00 0.00 0.00 58 1016.5
20260830213039 88 344 0.9 2.6 0.00 0.00 0.00 59 1016.6
20260830211539 89 281 0.9 2.6 0.00 0.00 0.00 55 1016.6
20260830210044 90 239 0.0 1.7 0.00 0.00 0.00 55 1016.6
20260830204540 91 65 0.0 3.5 0.00 0.00 0.00 55 1016.6
20260830203035 91 40 0.0 4.3 0.00 0.00 0.00 53 1016.8
20260830201534 92 98 0.0 3.5 0.00 0.00 0.00 53 1016.9
20260830200030 92 314 0.9 3.5 0.00 0.00 0.00 54 1017.3
20260830194528 91 60 1.7 5.2 0.00 0.00 0.00 55 1017.5
20260830193025 91 260 0.0 3.5 0.00 0.00 0.00 58 1017.7
20260830191522 91 279 0.9 2.6 0.00 0.00 0.00 56 1018.0